owner,sensor,date,latitude,longitude,vertical_datum,mass_concentration_of_oxygen_in_sea_water,qcFlag 
SCCF RECON,ioos:station:SCCF:16:1,2008-04-01T00:00:00Z,26.4345,-81.9647,2.698,7.5,1111122 
SCCF RECON,ioos:station:SCCF:16:1,2008-04-01T01:00:00Z,26.4345,-81.9647,2.671,7.43,1111122 
SCCF RECON,ioos:station:SCCF:16:1,2008-04-01T02:00:00Z,26.4345,-81.9647,2.648,7.33,1111122 
SCCF RECON,ioos:station:SCCF:16:1,2008-04-01T03:00:00Z,26.4345,-81.9647,2.578,7.24,1111122 
SCCF RECON,ioos:station:SCCF:16:1,2008-04-01T04:00:00Z,26.4345,-81.9647,2.487,7.14,1111122 
SCCF RECON,ioos:station:SCCF:16:1,2008-04-01T05:00:00Z,26.4345,-81.9647,2.369,6.96,1111122 
SCCF RECON,ioos:station:SCCF:16:1,2008-04-01T06:00:00Z,26.4345,-81.9647,2.218,6.92,1111122 
SCCF RECON,ioos:station:SCCF:16:1,2008-04-01T07:00:00Z,26.4345,-81.9647,2.113,6.97,1111122 
SCCF RECON,ioos:station:SCCF:16:1,2008-04-01T08:00:00Z,26.4345,-81.9647,2.006,6.9,1111122 
SCCF RECON,ioos:station:SCCF:16:1,2008-04-01T09:00:00Z,26.4345,-81.9647,2.09,6.9,1111122 
SCCF RECON,ioos:station:SCCF:16:1,2008-04-01T10:00:00Z,26.4345,-81.9647,2.24,6.95,1111122 
SCCF RECON,ioos:station:SCCF:16:1,2008-04-01T11:00:00Z,26.4345,-81.9647,2.362,6.86,1111122 
SCCF RECON,ioos:station:SCCF:16:1,2008-04-01T12:00:00Z,26.4345,-81.9647,2.513,6.85,1111122 
SCCF RECON,ioos:station:SCCF:16:1,2008-04-01T13:00:00Z,26.4345,-81.9647,2.618,6.88,1111122 
SCCF RECON,ioos:station:SCCF:16:1,2008-04-01T14:00:00Z,26.4345,-81.9647,2.684,6.9,1111122 
SCCF RECON,ioos:station:SCCF:16:1,2008-04-01T15:00:00Z,26.4345,-81.9647,2.717,6.98,1111122 
SCCF RECON,ioos:station:SCCF:16:1,2008-04-01T16:00:00Z,26.4345,-81.9647,2.684,7.03,1111122 
SCCF RECON,ioos:station:SCCF:16:1,2008-04-01T17:00:00Z,26.4345,-81.9647,2.651,7.05,1111122 
SCCF RECON,ioos:station:SCCF:16:1,2008-04-01T18:00:00Z,26.4345,-81.9647,2.584,7.06,1111122 
SCCF RECON,ioos:station:SCCF:16:1,2008-04-01T19:00:00Z,26.4345,-81.9647,2.529,7.12,1111122 
SCCF RECON,ioos:station:SCCF:16:1,2008-04-01T20:00:00Z,26.4345,-81.9647,2.49,7.15,1111122 
SCCF RECON,ioos:station:SCCF:16:1,2008-04-01T21:00:00Z,26.4345,-81.9647,2.437,7.19,1111122 
SCCF RECON,ioos:station:SCCF:16:1,2008-04-01T22:00:00Z,26.4345,-81.9647,2.479,7.29,1111122 
SCCF RECON,ioos:station:SCCF:16:1,2008-04-01T23:00:00Z,26.4345,-81.9647,2.609,7.35,1111122 
SCCF RECON,ioos:station:SCCF:16:1,2008-04-02T00:00:00Z,26.4345,-81.9647,2.672,7.29,1111122 
SCCF RECON,ioos:station:SCCF:16:1,2008-04-02T01:00:00Z,26.4345,-81.9647,2.732,7.23,1111122 
SCCF RECON,ioos:station:SCCF:16:1,2008-04-02T02:00:00Z,26.4345,-81.9647,2.728,7.19,1111122 
SCCF RECON,ioos:station:SCCF:16:1,2008-04-02T03:00:00Z,26.4345,-81.9647,2.689,7.14,1111122 
SCCF RECON,ioos:station:SCCF:16:1,2008-04-02T04:00:00Z,26.4345,-81.9647,2.592,7.13,1111122 
SCCF RECON,ioos:station:SCCF:16:1,2008-04-02T05:00:00Z,26.4345,-81.9647,2.421,6.91,1111122 
SCCF RECON,ioos:station:SCCF:16:1,2008-04-02T06:00:00Z,26.4345,-81.9647,2.31,6.73,1111122 
SCCF RECON,ioos:station:SCCF:16:1,2008-04-02T07:00:00Z,26.4345,-81.9647,2.178,6.89,1111122 
SCCF RECON,ioos:station:SCCF:16:1,2008-04-02T08:00:00Z,26.4345,-81.9647,2.053,6.91,1111122 
SCCF RECON,ioos:station:SCCF:16:1,2008-04-02T09:00:00Z,26.4345,-81.9647,2.044,6.74,1111122 
SCCF RECON,ioos:station:SCCF:16:1,2008-04-02T10:00:00Z,26.4345,-81.9647,2.146,6.65,1111122 
SCCF RECON,ioos:station:SCCF:16:1,2008-04-02T11:00:00Z,26.4345,-81.9647,2.26,6.53,1111122 
SCCF RECON,ioos:station:SCCF:16:1,2008-04-02T12:00:00Z,26.4345,-81.9647,2.406,6.61,1111122 
SCCF RECON,ioos:station:SCCF:16:1,2008-04-02T13:00:00Z,26.4345,-81.9647,2.529,6.73,1111122 
SCCF RECON,ioos:station:SCCF:16:1,2008-04-02T14:00:00Z,26.4345,-81.9647,2.67,6.88,1111122 
SCCF RECON,ioos:station:SCCF:16:1,2008-04-02T15:00:00Z,26.4345,-81.9647,2.758,7.1,1111122 
SCCF RECON,ioos:station:SCCF:16:1,2008-04-02T16:00:00Z,26.4345,-81.9647,2.712,7.11,1111122 
SCCF RECON,ioos:station:SCCF:16:1,2008-04-02T17:00:00Z,26.4345,-81.9647,2.639,7.16,1111122 
SCCF RECON,ioos:station:SCCF:16:1,2008-04-02T18:00:00Z,26.4345,-81.9647,2.523,7.28,1111122 
SCCF RECON,ioos:station:SCCF:16:1,2008-04-02T19:00:00Z,26.4345,-81.9647,2.413,7.4,1111122 
SCCF RECON,ioos:station:SCCF:16:1,2008-04-02T20:00:00Z,26.4345,-81.9647,2.355,7.44,1111122 
SCCF RECON,ioos:station:SCCF:16:1,2008-04-02T21:00:00Z,26.4345,-81.9647,2.337,7.48,1111122 
SCCF RECON,ioos:station:SCCF:16:1,2008-04-02T22:00:00Z,26.4345,-81.9647,2.343,7.4,1111122 
SCCF RECON,ioos:station:SCCF:16:1,2008-04-02T23:00:00Z,26.4345,-81.9647,2.42,7.29,1111122 
SCCF RECON,ioos:station:SCCF:16:1,2008-04-03T00:00:00Z,26.4345,-81.9647,2.584,7.29,1111122 
SCCF RECON,ioos:station:SCCF:16:1,2008-04-03T01:00:00Z,26.4345,-81.9647,2.688,7.35,1111122 
SCCF RECON,ioos:station:SCCF:16:1,2008-04-03T02:00:00Z,26.4345,-81.9647,2.764,7.28,1111122 
SCCF RECON,ioos:station:SCCF:16:1,2008-04-03T03:00:00Z,26.4345,-81.9647,2.794,7.31,1111122 
SCCF RECON,ioos:station:SCCF:16:1,2008-04-03T04:00:00Z,26.4345,-81.9647,2.755,7.32,1111122 
SCCF RECON,ioos:station:SCCF:16:1,2008-04-03T05:00:00Z,26.4345,-81.9647,2.609,7.18,1111122 
SCCF RECON,ioos:station:SCCF:16:1,2008-04-03T06:00:00Z,26.4345,-81.9647,2.422,7.06,1111122 
SCCF RECON,ioos:station:SCCF:16:1,2008-04-03T07:00:00Z,26.4345,-81.9647,2.277,6.85,1111122 
SCCF RECON,ioos:station:SCCF:16:1,2008-04-03T08:00:00Z,26.4345,-81.9647,2.146,6.68,1111122 
SCCF RECON,ioos:station:SCCF:16:1,2008-04-03T09:00:00Z,26.4345,-81.9647,2.031,6.65,1111122 
SCCF RECON,ioos:station:SCCF:16:1,2008-04-03T10:00:00Z,26.4345,-81.9647,2.057,6.67,1111122 
SCCF RECON,ioos:station:SCCF:16:1,2008-04-03T11:00:00Z,26.4345,-81.9647,2.192,6.55,1111122 
SCCF RECON,ioos:station:SCCF:16:1,2008-04-03T12:00:00Z,26.4345,-81.9647,2.38,6.54,1111122 
SCCF RECON,ioos:station:SCCF:16:1,2008-04-03T13:00:00Z,26.4345,-81.9647,2.573,6.68,1111122 
SCCF RECON,ioos:station:SCCF:16:1,2008-04-03T14:00:00Z,26.4345,-81.9647,2.678,6.8,1111122 
SCCF RECON,ioos:station:SCCF:16:1,2008-04-03T15:00:00Z,26.4345,-81.9647,2.766,6.89,1111122 
SCCF RECON,ioos:station:SCCF:16:1,2008-04-03T16:00:00Z,26.4345,-81.9647,2.803,6.95,1111122 
SCCF RECON,ioos:station:SCCF:16:1,2008-04-03T17:00:00Z,26.4345,-81.9647,2.723,6.93,1111122 
SCCF RECON,ioos:station:SCCF:16:1,2008-04-03T18:00:00Z,26.4345,-81.9647,2.592,6.95,1111122 
SCCF RECON,ioos:station:SCCF:16:1,2008-04-03T19:00:00Z,26.4345,-81.9647,2.451,6.99,1111122 
SCCF RECON,ioos:station:SCCF:16:1,2008-04-03T20:00:00Z,26.4345,-81.9647,2.332,7.08,1111122 
SCCF RECON,ioos:station:SCCF:16:1,2008-04-03T21:00:00Z,26.4345,-81.9647,2.218,7.29,1111122 
SCCF RECON,ioos:station:SCCF:16:1,2008-04-03T22:00:00Z,26.4345,-81.9647,2.162,7.4,1111122 
SCCF RECON,ioos:station:SCCF:16:1,2008-04-03T23:00:00Z,26.4345,-81.9647,2.229,7.44,1111122 
SCCF RECON,ioos:station:SCCF:16:1,2008-04-04T00:00:00Z,26.4345,-81.9647,2.443,7.36,1111122 
SCCF RECON,ioos:station:SCCF:16:1,2008-04-04T01:00:00Z,26.4345,-81.9647,2.671,7.47,1111122 
SCCF RECON,ioos:station:SCCF:16:1,2008-04-04T02:00:00Z,26.4345,-81.9647,2.784,7.43,1111122 
SCCF RECON,ioos:station:SCCF:16:1,2008-04-04T03:00:00Z,26.4345,-81.9647,2.848,7.32,1111122 
SCCF RECON,ioos:station:SCCF:16:1,2008-04-04T04:00:00Z,26.4345,-81.9647,2.828,7.19,1111122 
SCCF RECON,ioos:station:SCCF:16:1,2008-04-04T05:00:00Z,26.4345,-81.9647,2.717,7.28,1111122 
SCCF RECON,ioos:station:SCCF:16:1,2008-04-04T06:00:00Z,26.4345,-81.9647,2.606,7.16,1111122 
SCCF RECON,ioos:station:SCCF:16:1,2008-04-04T07:00:00Z,26.4345,-81.9647,2.454,6.96,1111122 
SCCF RECON,ioos:station:SCCF:16:1,2008-04-04T08:00:00Z,26.4345,-81.9647,2.242,6.68,1111122 
SCCF RECON,ioos:station:SCCF:16:1,2008-04-04T09:00:00Z,26.4345,-81.9647,2.127,6.66,1111122 
SCCF RECON,ioos:station:SCCF:16:1,2008-04-04T10:00:00Z,26.4345,-81.9647,2.101,6.67,1111122 
SCCF RECON,ioos:station:SCCF:16:1,2008-04-04T11:00:00Z,26.4345,-81.9647,2.199,6.59,1111122 
SCCF RECON,ioos:station:SCCF:16:1,2008-04-04T12:00:00Z,26.4345,-81.9647,2.426,6.6,1111122 
SCCF RECON,ioos:station:SCCF:16:1,2008-04-04T13:00:00Z,26.4345,-81.9647,2.646,6.72,1111122 
SCCF RECON,ioos:station:SCCF:16:1,2008-04-04T14:00:00Z,26.4345,-81.9647,2.753,6.77,1111122 
SCCF RECON,ioos:station:SCCF:16:1,2008-04-04T15:00:00Z,26.4345,-81.9647,2.858,6.63,1111122 
SCCF RECON,ioos:station:SCCF:16:1,2008-04-04T16:00:00Z,26.4345,-81.9647,2.929,7.42,1111122 
SCCF RECON,ioos:station:SCCF:16:1,2008-04-04T17:00:00Z,26.4345,-81.9647,2.913,7.44,1111122 
SCCF RECON,ioos:station:SCCF:16:1,2008-04-04T18:00:00Z,26.4345,-81.9647,2.792,7.47,1111122 
SCCF RECON,ioos:station:SCCF:16:1,2008-04-04T19:00:00Z,26.4345,-81.9647,2.6,7.52,1111122 
SCCF RECON,ioos:station:SCCF:16:1,2008-04-04T20:00:00Z,26.4345,-81.9647,2.405,7.48,1111122 
SCCF RECON,ioos:station:SCCF:16:1,2008-04-04T21:00:00Z,26.4345,-81.9647,2.244,7.75,1111122 
SCCF RECON,ioos:station:SCCF:16:1,2008-04-04T22:00:00Z,26.4345,-81.9647,2.116,7.36,1111122 
SCCF RECON,ioos:station:SCCF:16:1,2008-04-04T23:00:00Z,26.4345,-81.9647,2.144,6.84,1111122 
SCCF RECON,ioos:station:SCCF:16:1,2008-04-05T00:00:00Z,26.4345,-81.9647,2.312,6.93,1111122 
SCCF RECON,ioos:station:SCCF:16:1,2008-04-05T01:00:00Z,26.4345,-81.9647,2.556,6.9,1111122 
SCCF RECON,ioos:station:SCCF:16:1,2008-04-05T02:00:00Z,26.4345,-81.9647,2.764,6.87,1111122 
SCCF RECON,ioos:station:SCCF:16:1,2008-04-05T03:00:00Z,26.4345,-81.9647,2.856,7.13,1111122 
SCCF RECON,ioos:station:SCCF:16:1,2008-04-05T04:00:00Z,26.4345,-81.9647,2.911,7.35,1111122 
SCCF RECON,ioos:station:SCCF:16:1,2008-04-05T05:00:00Z,26.4345,-81.9647,2.9,7.17,1111122 
SCCF RECON,ioos:station:SCCF:16:1,2008-04-05T06:00:00Z,26.4345,-81.9647,2.799,7.06,1111122 
SCCF RECON,ioos:station:SCCF:16:1,2008-04-05T07:00:00Z,26.4345,-81.9647,2.63,6.96,1111122 
SCCF RECON,ioos:station:SCCF:16:1,2008-04-05T08:00:00Z,26.4345,-81.9647,2.44,6.75,1111122 
SCCF RECON,ioos:station:SCCF:16:1,2008-04-05T09:00:00Z,26.4345,-81.9647,2.338,6.63,1111122 
SCCF RECON,ioos:station:SCCF:16:1,2008-04-05T10:00:00Z,26.4345,-81.9647,2.225,6.72,1111122 
SCCF RECON,ioos:station:SCCF:16:1,2008-04-05T11:00:00Z,26.4345,-81.9647,2.225,6.11,1111122 
SCCF RECON,ioos:station:SCCF:16:1,2008-04-05T12:00:00Z,26.4345,-81.9647,2.371,6.14,1111122 
SCCF RECON,ioos:station:SCCF:16:1,2008-04-05T13:00:00Z,26.4345,-81.9647,2.639,6.07,1111122 
SCCF RECON,ioos:station:SCCF:16:1,2008-04-05T14:00:00Z,26.4345,-81.9647,2.797,6.26,1111122 
SCCF RECON,ioos:station:SCCF:16:1,2008-04-05T15:00:00Z,26.4345,-81.9647,2.865,6.27,1111122 
SCCF RECON,ioos:station:SCCF:16:1,2008-04-05T16:00:00Z,26.4345,-81.9647,2.931,6.86,1111122 
SCCF RECON,ioos:station:SCCF:16:1,2008-04-05T17:00:00Z,26.4345,-81.9647,2.928,6.86,1111122 
SCCF RECON,ioos:station:SCCF:16:1,2008-04-05T18:00:00Z,26.4345,-81.9647,2.869,6.82,1111122 
SCCF RECON,ioos:station:SCCF:16:1,2008-04-05T19:00:00Z,26.4345,-81.9647,2.683,6.73,1111122 
SCCF RECON,ioos:station:SCCF:16:1,2008-04-05T20:00:00Z,26.4345,-81.9647,2.468,6.77,1111122 
SCCF RECON,ioos:station:SCCF:16:1,2008-04-05T21:00:00Z,26.4345,-81.9647,2.249,6.72,1111122 
SCCF RECON,ioos:station:SCCF:16:1,2008-04-05T22:00:00Z,26.4345,-81.9647,2.08,6.94,1111122 
SCCF RECON,ioos:station:SCCF:16:1,2008-04-05T23:00:00Z,26.4345,-81.9647,1.961,7.59,1111122 
SCCF RECON,ioos:station:SCCF:16:1,2008-04-06T00:00:00Z,26.4345,-81.9647,2.034,6.72,1111122 
SCCF RECON,ioos:station:SCCF:16:1,2008-04-06T01:00:00Z,26.4345,-81.9647,2.284,7.1,1111122 
SCCF RECON,ioos:station:SCCF:16:1,2008-04-06T02:00:00Z,26.4345,-81.9647,2.559,6.99,1111122 
SCCF RECON,ioos:station:SCCF:16:1,2008-04-06T03:00:00Z,26.4345,-81.9647,2.696,6.74,1111122 
SCCF RECON,ioos:station:SCCF:16:1,2008-04-06T04:00:00Z,26.4345,-81.9647,2.842,7.3,1111122 
SCCF RECON,ioos:station:SCCF:16:1,2008-04-06T05:00:00Z,26.4345,-81.9647,2.818,7.14,1111122 
SCCF RECON,ioos:station:SCCF:16:1,2008-04-06T06:00:00Z,26.4345,-81.9647,2.648,6.72,1111122 
SCCF RECON,ioos:station:SCCF:16:1,2008-04-06T07:00:00Z,26.4345,-81.9647,2.506,6.67,1111122 
SCCF RECON,ioos:station:SCCF:16:1,2008-04-06T08:00:00Z,26.4345,-81.9647,2.284,6.52,1111122 
SCCF RECON,ioos:station:SCCF:16:1,2008-04-06T09:00:00Z,26.4345,-81.9647,2.426,6.24,1111122 
SCCF RECON,ioos:station:SCCF:16:1,2008-04-06T10:00:00Z,26.4345,-81.9647,2.318,6.14,1111122 
SCCF RECON,ioos:station:SCCF:16:1,2008-04-06T11:00:00Z,26.4345,-81.9647,2.23,6.15,1111122 
SCCF RECON,ioos:station:SCCF:16:1,2008-04-06T12:00:00Z,26.4345,-81.9647,2.223,6.1,1111122 
SCCF RECON,ioos:station:SCCF:16:1,2008-04-06T13:00:00Z,26.4345,-81.9647,2.413,6.19,1111122 
SCCF RECON,ioos:station:SCCF:16:1,2008-04-06T14:00:00Z,26.4345,-81.9647,2.534,6.28,1111122 
SCCF RECON,ioos:station:SCCF:16:1,2008-04-06T15:00:00Z,26.4345,-81.9647,2.771,6.33,1111122 
SCCF RECON,ioos:station:SCCF:16:1,2008-04-06T16:00:00Z,26.4345,-81.9647,2.947,6.83,1111122 
SCCF RECON,ioos:station:SCCF:16:1,2008-04-06T17:00:00Z,26.4345,-81.9647,3.023,6.68,1111122 
SCCF RECON,ioos:station:SCCF:16:1,2008-04-06T18:00:00Z,26.4345,-81.9647,2.937,6.7,1111122 
SCCF RECON,ioos:station:SCCF:16:1,2008-04-06T19:00:00Z,26.4345,-81.9647,2.7,6.65,1111122 
SCCF RECON,ioos:station:SCCF:16:1,2008-04-06T20:00:00Z,26.4345,-81.9647,2.47,6.78,1111122 
SCCF RECON,ioos:station:SCCF:16:1,2008-04-06T21:00:00Z,26.4345,-81.9647,2.246,6.69,1111122 
SCCF RECON,ioos:station:SCCF:16:1,2008-04-06T22:00:00Z,26.4345,-81.9647,2.048,6.81,1111122 
SCCF RECON,ioos:station:SCCF:16:1,2008-04-06T23:00:00Z,26.4345,-81.9647,1.895,7.08,1111122 
SCCF RECON,ioos:station:SCCF:16:1,2008-04-07T00:00:00Z,26.4345,-81.9647,1.818,7.41,1111122 
SCCF RECON,ioos:station:SCCF:16:1,2008-04-07T01:00:00Z,26.4345,-81.9647,2.027,7.2,1111122 
SCCF RECON,ioos:station:SCCF:16:1,2008-04-07T02:00:00Z,26.4345,-81.9647,2.265,7.19,1111122 
SCCF RECON,ioos:station:SCCF:16:1,2008-04-07T03:00:00Z,26.4345,-81.9647,2.434,7.12,1111122 
SCCF RECON,ioos:station:SCCF:16:1,2008-04-07T04:00:00Z,26.4345,-81.9647,2.464,7.04,1111122 
SCCF RECON,ioos:station:SCCF:16:1,2008-04-07T05:00:00Z,26.4345,-81.9647,2.465,6.98,1111122 
SCCF RECON,ioos:station:SCCF:16:1,2008-04-07T06:00:00Z,26.4345,-81.9647,2.608,6.92,1111122 
SCCF RECON,ioos:station:SCCF:16:1,2008-04-07T07:00:00Z,26.4345,-81.9647,2.493,6.71,1111122 
SCCF RECON,ioos:station:SCCF:16:1,2008-04-07T08:00:00Z,26.4345,-81.9647,2.617,6.66,1111122 
SCCF RECON,ioos:station:SCCF:16:1,2008-04-07T09:00:00Z,26.4345,-81.9647,2.462,6.58,1111122 
SCCF RECON,ioos:station:SCCF:16:1,2008-04-07T10:00:00Z,26.4345,-81.9647,2.458,6.49,1111122 
SCCF RECON,ioos:station:SCCF:16:1,2008-04-07T11:00:00Z,26.4345,-81.9647,2.289,6.57,1111122 
SCCF RECON,ioos:station:SCCF:16:1,2008-04-07T12:00:00Z,26.4345,-81.9647,2.126,6.4,1111122 
SCCF RECON,ioos:station:SCCF:16:1,2008-04-07T13:00:00Z,26.4345,-81.9647,2.293,6.36,1111122 
SCCF RECON,ioos:station:SCCF:16:1,2008-04-07T14:00:00Z,26.4345,-81.9647,2.532,6.34,1111122 
SCCF RECON,ioos:station:SCCF:16:1,2008-04-07T15:00:00Z,26.4345,-81.9647,2.841,6.56,1111122 
SCCF RECON,ioos:station:SCCF:16:1,2008-04-07T16:00:00Z,26.4345,-81.9647,2.953,6.81,1111122 
SCCF RECON,ioos:station:SCCF:16:1,2008-04-07T17:00:00Z,26.4345,-81.9647,2.948,6.9,1111122 
SCCF RECON,ioos:station:SCCF:16:1,2008-04-07T18:00:00Z,26.4345,-81.9647,2.911,6.89,1111122 
SCCF RECON,ioos:station:SCCF:16:1,2008-04-07T19:00:00Z,26.4345,-81.9647,2.812,6.93,1111122 
SCCF RECON,ioos:station:SCCF:16:1,2008-04-07T20:00:00Z,26.4345,-81.9647,2.607,7.05,1111122 
SCCF RECON,ioos:station:SCCF:16:1,2008-04-07T21:00:00Z,26.4345,-81.9647,2.319,7.05,1111122 
SCCF RECON,ioos:station:SCCF:16:1,2008-04-07T22:00:00Z,26.4345,-81.9647,2.076,7.08,1111122 
SCCF RECON,ioos:station:SCCF:16:1,2008-04-07T23:00:00Z,26.4345,-81.9647,1.851,7.21,1111122 
SCCF RECON,ioos:station:SCCF:16:1,2008-04-08T00:00:00Z,26.4345,-81.9647,1.65,7.15,1111122 
SCCF RECON,ioos:station:SCCF:16:1,2008-04-08T01:00:00Z,26.4345,-81.9647,1.669,7.45,1111122 
SCCF RECON,ioos:station:SCCF:16:1,2008-04-08T02:00:00Z,26.4345,-81.9647,1.881,7.15,1111122 
SCCF RECON,ioos:station:SCCF:16:1,2008-04-08T03:00:00Z,26.4345,-81.9647,2.175,7.57,1111122 
SCCF RECON,ioos:station:SCCF:16:1,2008-04-08T04:00:00Z,26.4345,-81.9647,2.322,7.21,1111122 
SCCF RECON,ioos:station:SCCF:16:1,2008-04-08T05:00:00Z,26.4345,-81.9647,2.448,7.05,1111122 
SCCF RECON,ioos:station:SCCF:16:1,2008-04-08T06:00:00Z,26.4345,-81.9647,2.595,6.99,1111122 
SCCF RECON,ioos:station:SCCF:16:1,2008-04-08T07:00:00Z,26.4345,-81.9647,2.658,6.95,1111122 
SCCF RECON,ioos:station:SCCF:16:1,2008-04-08T08:00:00Z,26.4345,-81.9647,2.695,7.04,1111122 
SCCF RECON,ioos:station:SCCF:16:1,2008-04-08T09:00:00Z,26.4345,-81.9647,2.496,6.7,1111122 
SCCF RECON,ioos:station:SCCF:16:1,2008-04-08T10:00:00Z,26.4345,-81.9647,2.34,6.62,1111122 
SCCF RECON,ioos:station:SCCF:16:1,2008-04-08T11:00:00Z,26.4345,-81.9647,2.302,6.59,1111122 
SCCF RECON,ioos:station:SCCF:16:1,2008-04-08T12:00:00Z,26.4345,-81.9647,2.377,6.5,1111122 
SCCF RECON,ioos:station:SCCF:16:1,2008-04-08T13:00:00Z,26.4345,-81.9647,2.368,6.48,1111122 
SCCF RECON,ioos:station:SCCF:16:1,2008-04-08T14:00:00Z,26.4345,-81.9647,2.564,6.53,1111122 
SCCF RECON,ioos:station:SCCF:16:1,2008-04-08T15:00:00Z,26.4345,-81.9647,2.757,6.76,1111122 
SCCF RECON,ioos:station:SCCF:16:1,2008-04-08T16:00:00Z,26.4345,-81.9647,2.867,6.89,1111122 
SCCF RECON,ioos:station:SCCF:16:1,2008-04-08T17:00:00Z,26.4345,-81.9647,2.894,6.86,1111122 
SCCF RECON,ioos:station:SCCF:16:1,2008-04-08T18:00:00Z,26.4345,-81.9647,2.942,6.94,1111122 
SCCF RECON,ioos:station:SCCF:16:1,2008-04-08T19:00:00Z,26.4345,-81.9647,2.902,6.95,1111122 
SCCF RECON,ioos:station:SCCF:16:1,2008-04-08T20:00:00Z,26.4345,-81.9647,2.794,6.93,1111122 
SCCF RECON,ioos:station:SCCF:16:1,2008-04-08T21:00:00Z,26.4345,-81.9647,2.58,6.98,1111122 
SCCF RECON,ioos:station:SCCF:16:1,2008-04-08T22:00:00Z,26.4345,-81.9647,2.317,6.83,1111122 
SCCF RECON,ioos:station:SCCF:16:1,2008-04-08T23:00:00Z,26.4345,-81.9647,2.088,7.15,1111122 
SCCF RECON,ioos:station:SCCF:16:1,2008-04-09T00:00:00Z,26.4345,-81.9647,1.864,7.41,1111122 
SCCF RECON,ioos:station:SCCF:16:1,2008-04-09T01:00:00Z,26.4345,-81.9647,1.715,7.11,1111122 
SCCF RECON,ioos:station:SCCF:16:1,2008-04-09T02:00:00Z,26.4345,-81.9647,1.742,7.58,1111122 
SCCF RECON,ioos:station:SCCF:16:1,2008-04-09T03:00:00Z,26.4345,-81.9647,1.97,6.81,1111122 
SCCF RECON,ioos:station:SCCF:16:1,2008-04-09T04:00:00Z,26.4345,-81.9647,2.222,7.16,1111122 
SCCF RECON,ioos:station:SCCF:16:1,2008-04-09T05:00:00Z,26.4345,-81.9647,2.373,7.4,1111122 
SCCF RECON,ioos:station:SCCF:16:1,2008-04-09T06:00:00Z,26.4345,-81.9647,2.475,6.85,1111122 
SCCF RECON,ioos:station:SCCF:16:1,2008-04-09T07:00:00Z,26.4345,-81.9647,2.529,6.84,1111122 
SCCF RECON,ioos:station:SCCF:16:1,2008-04-09T08:00:00Z,26.4345,-81.9647,2.544,6.76,1111122 
SCCF RECON,ioos:station:SCCF:16:1,2008-04-09T09:00:00Z,26.4345,-81.9647,2.489,6.66,1111122 
SCCF RECON,ioos:station:SCCF:16:1,2008-04-09T10:00:00Z,26.4345,-81.9647,2.438,6.72,1111122 
SCCF RECON,ioos:station:SCCF:16:1,2008-04-09T11:00:00Z,26.4345,-81.9647,2.419,6.77,1111122 
SCCF RECON,ioos:station:SCCF:16:1,2008-04-09T12:00:00Z,26.4345,-81.9647,2.392,6.76,1111122 
SCCF RECON,ioos:station:SCCF:16:1,2008-04-09T13:00:00Z,26.4345,-81.9647,2.372,6.67,1111122 
SCCF RECON,ioos:station:SCCF:16:1,2008-04-09T14:00:00Z,26.4345,-81.9647,2.398,6.66,1111122 
SCCF RECON,ioos:station:SCCF:16:1,2008-04-09T15:00:00Z,26.4345,-81.9647,2.525,6.83,1111122 
SCCF RECON,ioos:station:SCCF:16:1,2008-04-09T16:00:00Z,26.4345,-81.9647,2.678,7.1,1111122 
SCCF RECON,ioos:station:SCCF:16:1,2008-04-09T17:00:00Z,26.4345,-81.9647,2.811,7.07,1111122 
SCCF RECON,ioos:station:SCCF:16:1,2008-04-09T18:00:00Z,26.4345,-81.9647,2.864,7.13,1111122 
SCCF RECON,ioos:station:SCCF:16:1,2008-04-09T19:00:00Z,26.4345,-81.9647,2.867,7.13,1111122 
SCCF RECON,ioos:station:SCCF:16:1,2008-04-09T20:00:00Z,26.4345,-81.9647,2.779,7.15,1111122 
SCCF RECON,ioos:station:SCCF:16:1,2008-04-09T21:00:00Z,26.4345,-81.9647,2.66,6.94,1111122 
SCCF RECON,ioos:station:SCCF:16:1,2008-04-09T22:00:00Z,26.4345,-81.9647,2.47,7.0,1111122 
SCCF RECON,ioos:station:SCCF:16:1,2008-04-09T23:00:00Z,26.4345,-81.9647,2.26,6.9,1111122 
SCCF RECON,ioos:station:SCCF:16:1,2008-04-10T00:00:00Z,26.4345,-81.9647,2.069,6.84,1111122 
SCCF RECON,ioos:station:SCCF:16:1,2008-04-10T01:00:00Z,26.4345,-81.9647,1.875,7.29,1111122 
SCCF RECON,ioos:station:SCCF:16:1,2008-04-10T02:00:00Z,26.4345,-81.9647,1.782,6.89,1111122 
SCCF RECON,ioos:station:SCCF:16:1,2008-04-10T03:00:00Z,26.4345,-81.9647,1.814,6.88,1111122 
SCCF RECON,ioos:station:SCCF:16:1,2008-04-10T04:00:00Z,26.4345,-81.9647,1.98,7.01,1111122 
SCCF RECON,ioos:station:SCCF:16:1,2008-04-10T05:00:00Z,26.4345,-81.9647,2.213,6.98,1111122 
SCCF RECON,ioos:station:SCCF:16:1,2008-04-10T06:00:00Z,26.4345,-81.9647,2.313,7.01,1111122 
SCCF RECON,ioos:station:SCCF:16:1,2008-04-10T07:00:00Z,26.4345,-81.9647,2.423,7.02,1111122 
SCCF RECON,ioos:station:SCCF:16:1,2008-04-10T08:00:00Z,26.4345,-81.9647,2.544,6.8,1111122 
SCCF RECON,ioos:station:SCCF:16:1,2008-04-10T09:00:00Z,26.4345,-81.9647,2.607,6.75,1111122 
SCCF RECON,ioos:station:SCCF:16:1,2008-04-10T10:00:00Z,26.4345,-81.9647,2.576,6.82,1111122 
SCCF RECON,ioos:station:SCCF:16:1,2008-04-10T11:00:00Z,26.4345,-81.9647,2.545,6.77,1111122 
SCCF RECON,ioos:station:SCCF:16:1,2008-04-10T12:00:00Z,26.4345,-81.9647,2.553,6.47,1111122 
SCCF RECON,ioos:station:SCCF:16:1,2008-04-10T13:00:00Z,26.4345,-81.9647,2.555,6.41,1111122 
SCCF RECON,ioos:station:SCCF:16:1,2008-04-10T14:00:00Z,26.4345,-81.9647,2.582,6.58,1111122 
SCCF RECON,ioos:station:SCCF:16:1,2008-04-10T15:00:00Z,26.4345,-81.9647,2.639,6.66,1111122 
SCCF RECON,ioos:station:SCCF:16:1,2008-04-10T16:00:00Z,26.4345,-81.9647,2.728,6.72,1111122 
SCCF RECON,ioos:station:SCCF:16:1,2008-04-10T17:00:00Z,26.4345,-81.9647,2.809,6.64,1111122 
SCCF RECON,ioos:station:SCCF:16:1,2008-04-10T18:00:00Z,26.4345,-81.9647,2.874,6.66,1111122 
SCCF RECON,ioos:station:SCCF:16:1,2008-04-10T19:00:00Z,26.4345,-81.9647,2.9,6.73,1111122 
SCCF RECON,ioos:station:SCCF:16:1,2008-04-10T20:00:00Z,26.4345,-81.9647,2.897,6.78,1111122 
SCCF RECON,ioos:station:SCCF:16:1,2008-04-10T21:00:00Z,26.4345,-81.9647,2.836,6.76,1111122 
SCCF RECON,ioos:station:SCCF:16:1,2008-04-10T22:00:00Z,26.4345,-81.9647,2.701,6.86,1111122 
SCCF RECON,ioos:station:SCCF:16:1,2008-04-10T23:00:00Z,26.4345,-81.9647,2.526,6.78,1111122 
SCCF RECON,ioos:station:SCCF:16:1,2008-04-11T00:00:00Z,26.4345,-81.9647,2.321,6.68,1111122 
SCCF RECON,ioos:station:SCCF:16:1,2008-04-11T01:00:00Z,26.4345,-81.9647,2.153,6.84,1111122 
SCCF RECON,ioos:station:SCCF:16:1,2008-04-11T02:00:00Z,26.4345,-81.9647,1.978,7.05,1111122 
SCCF RECON,ioos:station:SCCF:16:1,2008-04-11T03:00:00Z,26.4345,-81.9647,1.891,7.22,1111122 
SCCF RECON,ioos:station:SCCF:16:1,2008-04-11T04:00:00Z,26.4345,-81.9647,1.907,7.48,1111122 
SCCF RECON,ioos:station:SCCF:16:1,2008-04-11T05:00:00Z,26.4345,-81.9647,2.058,7.27,1111122 
SCCF RECON,ioos:station:SCCF:16:1,2008-04-11T06:00:00Z,26.4345,-81.9647,2.212,7.34,1111122 
SCCF RECON,ioos:station:SCCF:16:1,2008-04-11T07:00:00Z,26.4345,-81.9647,2.322,7.5,1111122 
SCCF RECON,ioos:station:SCCF:16:1,2008-04-11T08:00:00Z,26.4345,-81.9647,2.399,7.3,1111122 
SCCF RECON,ioos:station:SCCF:16:1,2008-04-11T09:00:00Z,26.4345,-81.9647,2.492,7.23,1111122 
SCCF RECON,ioos:station:SCCF:16:1,2008-04-11T10:00:00Z,26.4345,-81.9647,2.577,7.17,1111122 
SCCF RECON,ioos:station:SCCF:16:1,2008-04-11T11:00:00Z,26.4345,-81.9647,2.608,7.13,1111122 
SCCF RECON,ioos:station:SCCF:16:1,2008-04-11T12:00:00Z,26.4345,-81.9647,2.617,6.77,1111122 
SCCF RECON,ioos:station:SCCF:16:1,2008-04-11T13:00:00Z,26.4345,-81.9647,2.603,6.72,1111122 
SCCF RECON,ioos:station:SCCF:16:1,2008-04-11T14:00:00Z,26.4345,-81.9647,2.575,6.44,1111122 
SCCF RECON,ioos:station:SCCF:16:1,2008-04-11T15:00:00Z,26.4345,-81.9647,2.584,6.26,1111122 
SCCF RECON,ioos:station:SCCF:16:1,2008-04-11T16:00:00Z,26.4345,-81.9647,2.65,6.39,1111122 
SCCF RECON,ioos:station:SCCF:16:1,2008-04-11T17:00:00Z,26.4345,-81.9647,2.715,6.57,1111122 
SCCF RECON,ioos:station:SCCF:16:1,2008-04-11T18:00:00Z,26.4345,-81.9647,2.802,6.61,1111122 
SCCF RECON,ioos:station:SCCF:16:1,2008-04-11T19:00:00Z,26.4345,-81.9647,2.848,6.76,1111122 